Tracking 17630 objects as of 24-May-2016
HD Live streaming from Space Station
objects crossing your sky now

COSMOS 970 DEB

Track COSMOS 970 DEB now!
10-day predictions


NORAD ID: 10563
Int'l Code: 1977-121E
Perigee: 872.0 km
Apogee: 1,028.2 km
Inclination: 65.8 °
Period: 103.9 minutes
Semi major axis: 7321 km
RCS: 0.0231 m2 (small)
Launch date: December 21, 1977
Source: Commonwealth of Independent States (former USSR) (CIS)
Launch site: TYURATAM MISSILE AND SPACE COMPLEX (TTMTR)

Note: This is SATELLITE DEBRIS
Your satellite tracking list
Your tracking list is empty





NASA's NSSDC Master Catalog

Two Line Element Set (TLE):
1 10563U 77121E   16144.71360791  .00000302  00000-0  31994-3 0  9997
2 10563  65.8495 278.3576 0106680 353.1375   6.8225 13.85917707927357
Source of the keplerian elements: AFSPC

N2YO: 534